TimeEST,TemperatureF,Dew PointF,Humidity,Sea Level PressureIn,VisibilityMPH,Wind Direction,Wind SpeedMPH,Gust SpeedMPH,PrecipitationIn,Events,Conditions,WindDirDegrees,DateUTC
12:14 AM,30.0,20.1,67,30.09,10.0,ESE,6.9,-,N/A,,Clear,110,2013-02-26 05:14:00
12:35 AM,29.3,19.4,67,30.08,10.0,East,4.6,-,N/A,,Clear,100,2013-02-26 05:35:00
12:54 AM,28.9,19.4,68,30.09,10.0,East,4.6,-,N/A,,Clear,90,2013-02-26 05:54:00
1:14 AM,28.4,18.9,67,30.08,10.0,ENE,5.8,-,N/A,,Clear,70,2013-02-26 06:14:00
1:34 AM,28.4,18.9,67,30.07,10.0,East,5.8,-,N/A,,Clear,80,2013-02-26 06:34:00
1:54 AM,28.4,18.7,67,30.06,10.0,East,6.9,-,N/A,,Clear,100,2013-02-26 06:54:00
2:15 AM,28.6,19.0,67,30.07,10.0,East,6.9,-,N/A,,Clear,90,2013-02-26 07:15:00
2:34 AM,29.1,19.2,67,30.08,10.0,East,6.9,-,N/A,,Clear,90,2013-02-26 07:34:00
2:54 AM,29.3,19.2,66,30.05,10.0,East,8.1,-,N/A,,Clear,90,2013-02-26 07:54:00
3:15 AM,29.3,19.4,67,30.05,10.0,East,9.2,-,N/A,,Clear,90,2013-02-26 08:15:00
3:34 AM,29.7,19.4,66,30.05,10.0,East,9.2,-,N/A,,Clear,80,2013-02-26 08:34:00
3:54 AM,29.3,19.4,67,30.02,10.0,ENE,10.4,-,N/A,,Clear,70,2013-02-26 08:54:00
4:14 AM,29.3,19.4,67,30.00,10.0,East,11.5,-,N/A,,Clear,80,2013-02-26 09:14:00
4:34 AM,29.3,19.2,66,30.00,10.0,ENE,9.2,-,N/A,,Clear,70,2013-02-26 09:34:00
4:55 AM,29.3,19.4,67,30.00,10.0,ENE,8.1,-,N/A,,Clear,70,2013-02-26 09:55:00
5:14 AM,29.7,19.4,66,29.98,10.0,ENE,9.2,17.3,N/A,,Clear,60,2013-02-26 10:14:00
5:34 AM,29.5,19.4,66,29.96,10.0,ENE,9.2,-,N/A,,Clear,60,2013-02-26 10:34:00
5:55 AM,29.7,19.9,67,29.96,10.0,ENE,10.4,-,N/A,,Clear,60,2013-02-26 10:55:00
6:14 AM,29.8,19.9,67,29.97,10.0,ENE,8.1,-,N/A,,Clear,60,2013-02-26 11:14:00
6:34 AM,29.7,20.1,68,29.95,10.0,NE,9.2,-,N/A,,Clear,50,2013-02-26 11:34:00
6:55 AM,30.0,20.1,67,29.96,10.0,ENE,8.1,-,N/A,,Clear,70,2013-02-26 11:55:00
7:14 AM,30.2,20.1,66,29.96,10.0,ENE,9.2,-,N/A,,Clear,70,2013-02-26 12:14:00
7:34 AM,30.2,20.1,66,29.95,10.0,ENE,10.4,-,N/A,,Clear,60,2013-02-26 12:34:00
7:55 AM,30.7,20.1,65,29.95,10.0,ENE,11.5,-,N/A,,Clear,60,2013-02-26 12:55:00
8:14 AM,30.9,20.3,65,29.94,10.0,ENE,11.5,-,N/A,,Clear,70,2013-02-26 13:14:00
8:34 AM,31.5,20.3,63,29.94,10.0,ENE,11.5,-,N/A,,Clear,60,2013-02-26 13:34:00
8:55 AM,32.0,20.7,63,29.93,10.0,East,13.8,19.6,N/A,,Clear,80,2013-02-26 13:55:00
9:14 AM,32.0,20.7,63,29.93,10.0,ENE,11.5,-,N/A,,Clear,70,2013-02-26 14:14:00
9:35 AM,32.0,20.8,63,29.89,10.0,East,13.8,18.4,N/A,,Clear,80,2013-02-26 14:35:00
9:54 AM,32.0,20.8,63,29.88,10.0,ENE,11.5,20.7,N/A,,Clear,70,2013-02-26 14:54:00
10:14 AM,32.0,21.0,64,29.85,10.0,ENE,16.1,21.9,N/A,,Scattered Clouds,60,2013-02-26 15:14:00
10:34 AM,32.4,21.0,63,29.84,10.0,East,18.4,23.0,N/A,,Clear,80,2013-02-26 15:34:00
10:54 AM,33.8,21.7,61,29.83,10.0,ENE,18.4,23.0,N/A,,Clear,70,2013-02-26 15:54:00
11:15 AM,34.5,21.9,60,29.82,10.0,East,15.0,19.6,N/A,,Clear,80,2013-02-26 16:15:00
11:34 AM,34.7,21.7,59,29.81,10.0,East,18.4,26.5,N/A,,Clear,80,2013-02-26 16:34:00
11:54 AM,34.9,21.9,59,29.80,10.0,ENE,16.1,24.2,N/A,,Clear,70,2013-02-26 16:54:00
12:15 PM,35.1,21.9,59,29.80,10.0,East,16.1,23.0,N/A,,Scattered Clouds,80,2013-02-26 17:15:00
12:34 PM,35.1,21.9,59,29.77,10.0,East,17.3,23.0,N/A,,Mostly Cloudy,80,2013-02-26 17:34:00
12:54 PM,34.7,23.5,64,29.75,5.0,ENE,16.1,23.0,N/A,Rain,Light Rain,70,2013-02-26 17:54:00
1:15 PM,34.2,24.4,68,29.73,5.0,ENE,16.1,20.7,N/A,Rain,Light Rain,70,2013-02-26 18:15:00
1:34 PM,34.2,25.5,71,29.71,7.0,ENE,12.7,19.6,N/A,Rain,Light Rain,70,2013-02-26 18:34:00
1:54 PM,34.7,25.7,70,29.69,7.0,ENE,16.1,20.7,N/A,Rain,Light Rain,70,2013-02-26 18:54:00
2:15 PM,34.9,25.7,69,29.67,5.0,East,16.1,24.2,N/A,Rain,Rain,80,2013-02-26 19:15:00
2:34 PM,34.2,26.6,74,29.66,3.0,East,15.0,23.0,N/A,Rain,Light Rain,80,2013-02-26 19:34:00
2:54 PM,34.0,27.7,78,29.64,5.0,ENE,13.8,19.6,N/A,,Overcast,70,2013-02-26 19:54:00
3:15 PM,33.8,28.4,81,29.65,3.0,East,9.2,19.6,N/A,,Overcast,80,2013-02-26 20:15:00
3:34 PM,33.8,28.4,81,29.64,2.5,East,10.4,17.3,N/A,,Overcast,80,2013-02-26 20:34:00
3:54 PM,33.8,29.1,83,29.64,2.5,East,10.4,-,N/A,,Overcast,80,2013-02-26 20:54:00
4:14 PM,33.8,29.3,84,29.65,3.0,East,11.5,-,N/A,,Overcast,80,2013-02-26 21:14:00
4:34 PM,33.8,29.5,84,29.64,2.5,East,6.9,-,N/A,,Overcast,80,2013-02-26 21:34:00
4:55 PM,33.8,30.0,86,29.63,2.5,East,9.2,-,N/A,Snow,Light Snow,80,2013-02-26 21:55:00
5:14 PM,33.8,30.0,86,29.62,1.2,ENE,9.2,-,N/A,Snow,Light Snow,70,2013-02-26 22:14:00
5:34 PM,33.8,30.4,87,29.62,1.2,East,10.4,-,N/A,Snow,Light Snow,80,2013-02-26 22:34:00
5:55 PM,33.8,30.7,89,29.60,2.0,East,10.4,-,N/A,Snow,Light Snow,80,2013-02-26 22:55:00
6:14 PM,33.8,30.9,89,29.60,0.5,ENE,9.2,-,N/A,Snow,Light Snow,70,2013-02-26 23:14:00
6:35 PM,33.8,31.1,90,29.60,0.8,East,9.2,-,N/A,Snow,Light Snow,80,2013-02-26 23:35:00
6:54 PM,33.8,31.1,90,29.60,3.0,East,11.5,-,N/A,Snow,Light Snow,80,2013-02-26 23:54:00
7:15 PM,33.8,31.5,91,29.59,2.0,ENE,9.2,-,N/A,Snow,Light Snow,70,2013-02-27 00:15:00
7:34 PM,33.8,31.5,91,29.59,2.0,East,9.2,-,N/A,Snow,Light Snow,80,2013-02-27 00:34:00
7:54 PM,33.8,31.6,92,29.58,2.0,ENE,10.4,-,N/A,Snow,Light Snow,70,2013-02-27 00:54:00
8:15 PM,33.8,31.6,92,29.56,0.5,ENE,9.2,-,N/A,Snow,Snow,70,2013-02-27 01:15:00
8:34 PM,33.8,31.8,92,29.56,1.5,ENE,9.2,-,N/A,Snow,Light Snow,70,2013-02-27 01:34:00
8:54 PM,33.8,31.6,92,29.56,1.5,ENE,9.2,-,N/A,Snow,Light Snow,70,2013-02-27 01:54:00
9:15 PM,33.8,31.8,92,29.55,1.5,ENE,9.2,-,N/A,Snow,Light Snow,70,2013-02-27 02:15:00
9:34 PM,33.8,32.0,93,29.54,1.2,ENE,9.2,-,N/A,Snow,Light Snow,70,2013-02-27 02:34:00
9:54 PM,33.8,31.8,92,29.53,1.0,ENE,8.1,-,N/A,Snow,Light Snow,70,2013-02-27 02:54:00
10:15 PM,33.8,31.8,92,29.53,2.5,ENE,9.2,-,N/A,Snow,Light Snow,70,2013-02-27 03:15:00
10:34 PM,33.8,31.8,92,29.52,2.0,ENE,8.1,-,N/A,Snow,Light Snow,70,2013-02-27 03:34:00
10:54 PM,33.8,31.8,92,29.51,3.0,East,8.1,-,N/A,Snow,Light Snow,80,2013-02-27 03:54:00
11:14 PM,33.8,31.8,92,29.50,2.5,ENE,8.1,-,N/A,Snow,Light Snow,70,2013-02-27 04:14:00
11:34 PM,33.8,32.0,93,29.50,3.0,East,6.9,-,N/A,Snow,Light Snow,80,2013-02-27 04:34:00
11:55 PM,33.8,32.0,93,29.49,0.8,East,6.9,-,N/A,Snow,Light Snow,90,2013-02-27 04:55:00